When you browse on this site, cookies collect data to enhance your experience and personalize the content and advertising you see.
Visit our Privacy Policy to learn more. By continuing to use the site, you agree to this use of cookies and data.
  • In Romania
  • List of Countries
  • For 7 days
  • Water Temperature
  • Satellite Maps
  • Weather Map
  • Weather Widgets
  • user-avatar
    Login

    Hourly Weather Golaghat

    Today, 18 February, Monday

    Time Temperature Precipitation Wind Pressure Humidity
    00:00 +19°C° 0 mm 1 mps 749 mmHg 77%
    01:00 +18°C° 0 mm 1 mps 749 mmHg 78%
    02:00 +18°C° 0 mm 1 mps 749 mmHg 78%
    03:00 +18°C° 0 mm 1 mps 749 mmHg 79%
    04:00 +18°C° 0 mm 1 mps 750 mmHg 79%
    05:00 +18°C° 0 mm 1 mps 750 mmHg 79%
    06:00 +18°C° 0 mm 1 mps 749 mmHg 81%
    07:00 +18°C° 0.4 mm 1 mps 750 mmHg 81%
    08:00 +18°C° 0.4 mm 1 mps 751 mmHg 81%
    09:00 +19°C° 0.4 mm 1 mps 751 mmHg 81%
    10:00 +18°C° 0.5 mm 2 mps 751 mmHg 82%
    11:00 +18°C° 0.5 mm 2 mps 751 mmHg 83%
    12:00 +18°C° 0 mm 2 mps 751 mmHg 85%
    13:00 +19°C° 0.1 mm 2 mps 751 mmHg 81%
    14:00 +20°C° 0.1 mm 2 mps 750 mmHg 76%
    15:00 +21°C° 0.1 mm 2 mps 750 mmHg 72%
    16:00 +20°C° 0.3 mm 2 mps 750 mmHg 77%
    17:00 +18°C° 0.3 mm 2 mps 750 mmHg 82%
    18:00 +17°C° 0 mm 2 mps 750 mmHg 85%
    19:00 +17°C° 0.4 mm 2 mps 750 mmHg 87%
    20:00 +18°C° 0.4 mm 1 mps 751 mmHg 88%
    21:00 +16°C° 0.4 mm 1 mps 751 mmHg 90%
    22:00 +16°C° 0.3 mm 1 mps 751 mmHg 91%
    23:00 +16°C° 0.3 mm 1 mps 751 mmHg 92%

    Tomorrow, 19 February, Tuesday

    Time Temperature Precipitation Wind Pressure Humidity
    00:00 +15°C° 0.3 mm 1 mps 752 mmHg 94%
    01:00 +15°C° 0.2 mm 1 mps 752 mmHg 94%
    02:00 +15°C° 0.2 mm 1 mps 751 mmHg 95%
    03:00 +15°C° 0.2 mm 1 mps 751 mmHg 95%
    04:00 +14°C° 0 mm 1 mps 752 mmHg 95%
    05:00 +14°C° 0 mm 1 mps 752 mmHg 95%
    06:00 +14°C° 0 mm 2 mps 752 mmHg 95%
    07:00 +15°C° 0 mm 2 mps 753 mmHg 91%
    08:00 +16°C° 0 mm 2 mps 753 mmHg 88%
    09:00 +17°C° 0 mm 3 mps 754 mmHg 84%
    10:00 +18°C° 0 mm 3 mps 753 mmHg 79%
    11:00 +19°C° 0 mm 3 mps 753 mmHg 75%
    12:00 +20°C° 0 mm 3 mps 753 mmHg 70%
    13:00 +21°C° 0 mm 3 mps 752 mmHg 68%
    14:00 +21°C° 0 mm 2 mps 752 mmHg 65%
    15:00 +23°C° 0 mm 2 mps 751 mmHg 62%
    16:00 +21°C° 0 mm 2 mps 752 mmHg 67%
    17:00 +20°C° 0 mm 2 mps 752 mmHg 71%
    18:00 +18°C° 0 mm 2 mps 752 mmHg 75%
    19:00 +18°C° 0 mm 2 mps 753 mmHg 76%
    20:00 +18°C° 0 mm 2 mps 753 mmHg 77%
    21:00 +17°C° 0 mm 2 mps 754 mmHg 78%
    22:00 +17°C° 0.1 mm 2 mps 754 mmHg 79%
    23:00 +17°C° 0.1 mm 2 mps 754 mmHg 81%

    Day after tomorrow, 20 February, Wednesday

    Time Temperature Precipitation Wind Pressure Humidity
    00:00 +18°C° 0.1 mm 1 mps 754 mmHg 82%
    01:00 +16°C° 0.1 mm 2 mps 754 mmHg 84%
    02:00 +16°C° 0.1 mm 2 mps 754 mmHg 86%
    03:00 +16°C° 0.1 mm 2 mps 754 mmHg 87%
    04:00 +16°C° 0 mm 2 mps 754 mmHg 89%
    05:00 +15°C° 0 mm 2 mps 754 mmHg 91%
    06:00 +15°C° 0 mm 2 mps 754 mmHg 92%
    07:00 +16°C° 0 mm 2 mps 755 mmHg 87%
    08:00 +17°C° 0 mm 2 mps 756 mmHg 81%
    09:00 +19°C° 0 mm 3 mps 756 mmHg 75%
    10:00 +20°C° 0 mm 3 mps 756 mmHg 70%
    11:00 +21°C° 0 mm 3 mps 755 mmHg 64%
    12:00 +24°C° 0 mm 3 mps 755 mmHg 58%
    13:00 +24°C° 0 mm 2 mps 754 mmHg 56%
    14:00 +25°C° 0 mm 2 mps 754 mmHg 53%
    15:00 +25°C° 0 mm 2 mps 753 mmHg 51%
    16:00 +24°C° 0 mm 2 mps 753 mmHg 57%
    17:00 +21°C° 0 mm 2 mps 754 mmHg 62%
    18:00 +20°C° 0 mm 3 mps 754 mmHg 68%
    19:00 +19°C° 0 mm 2 mps 755 mmHg 71%
    20:00 +18°C° 0 mm 2 mps 755 mmHg 73%
    21:00 +18°C° 0 mm 1 mps 756 mmHg 76%
    22:00 +18°C° 0 mm 1 mps 756 mmHg 77%
    23:00 +18°C° 0 mm 1 mps 756 mmHg 78%

    21 February, Thursday

    Time Temperature Precipitation Wind Pressure Humidity
    00:00 +15°C° 0 mm 0 mps 756 mmHg 80%
    01:00 +15°C° 0 mm 0 mps 756 mmHg 81%
    02:00 +15°C° 0 mm 0 mps 755 mmHg 82%
    03:00 +14°C° 0 mm 0 mps 755 mmHg 83%
    04:00 +14°C° 0 mm 0 mps 755 mmHg 84%
    05:00 +14°C° 0 mm 0 mps 755 mmHg 85%
    06:00 +13°C° 0 mm 0 mps 755 mmHg 85%
    07:00 +16°C° 0 mm 1 mps 756 mmHg 78%
    08:00 +19°C° 0 mm 1 mps 756 mmHg 71%
    09:00 +21°C° 0 mm 1 mps 757 mmHg 64%
    10:00 +21°C° 0 mm 2 mps 756 mmHg 59%
    11:00 +24°C° 0 mm 2 mps 755 mmHg 55%
    12:00 +26°C° 0 mm 2 mps 755 mmHg 51%
    13:00 +26°C° 0 mm 2 mps 754 mmHg 48%
    14:00 +27°C° 0 mm 2 mps 753 mmHg 46%
    15:00 +27°C° 0 mm 1 mps 752 mmHg 44%
    16:00 +26°C° 0 mm 1 mps 752 mmHg 49%
    17:00 +24°C° 0 mm 1 mps 752 mmHg 54%
    18:00 +23°C° 0 mm 1 mps 752 mmHg 59%
    19:00 +20°C° 0 mm 0 mps 753 mmHg 61%
    20:00 +19°C° 0 mm 0 mps 753 mmHg 64%
    21:00 +18°C° 0 mm 0 mps 754 mmHg 67%
    22:00 +18°C° 0 mm 0 mps 754 mmHg 68%
    23:00 +17°C° 0 mm 0 mps 753 mmHg 70%

    22 February, Friday

    Time Temperature Precipitation Wind Pressure Humidity
    00:00 +17°C° 0 mm 0 mps 753 mmHg 72%
    01:00 +17°C° 0 mm 0 mps 753 mmHg 73%
    02:00 +16°C° 0 mm 0 mps 752 mmHg 75%
    03:00 +16°C° 0 mm 0 mps 752 mmHg 76%
    04:00 +16°C° 0 mm 0 mps 752 mmHg 77%
    05:00 +15°C° 0 mm 0 mps 752 mmHg 78%
    06:00 +15°C° 0 mm 0 mps 752 mmHg 79%
    07:00 +19°C° 0 mm 1 mps 752 mmHg 73%
    08:00 +21°C° 0 mm 1 mps 753 mmHg 67%
    09:00 +22°C° 0 mm 1 mps 753 mmHg 60%
    10:00 +24°C° 0 mm 1 mps 753 mmHg 55%
    11:00 +26°C° 0 mm 1 mps 752 mmHg 50%
    12:00 +27°C° 0 mm 2 mps 751 mmHg 45%
    13:00 +28°C° 0 mm 1 mps 751 mmHg 43%
    14:00 +29°C° 0 mm 1 mps 750 mmHg 40%
    15:00 +27°C° 0 mm 0 mps 749 mmHg 38%
    16:00 +28°C° 0 mm 1 mps 749 mmHg 42%
    17:00 +26°C° 0 mm 1 mps 749 mmHg 47%
    18:00 +24°C° 0 mm 1 mps 750 mmHg 51%
    19:00 +23°C° 0 mm 1 mps 750 mmHg 54%
    20:00 +22°C° 0 mm 1 mps 751 mmHg 57%
    21:00 +21°C° 0 mm 1 mps 752 mmHg 59%
    22:00 +21°C° 0 mm 1 mps 752 mmHg 61%
    23:00 +19°C° 0 mm 0 mps 751 mmHg 62%

    23 February, Saturday

    Time Temperature Precipitation Wind Pressure Humidity
    00:00 +18°C° 0 mm 0 mps 751 mmHg 63%
    01:00 +18°C° 0 mm 0 mps 751 mmHg 63%
    02:00 +18°C° 0 mm 0 mps 751 mmHg 63%
    03:00 +18°C° 0 mm 0 mps 750 mmHg 63%
    04:00 +18°C° 0 mm 0 mps 751 mmHg 63%
    05:00 +20°C° 0 mm 1 mps 751 mmHg 64%
    06:00 +19°C° 0 mm 1 mps 751 mmHg 65%
    07:00 +21°C° 0 mm 1 mps 752 mmHg 61%
    08:00 +22°C° 0 mm 1 mps 752 mmHg 58%
    09:00 +24°C° 0 mm 2 mps 753 mmHg 54%
    10:00 +25°C° 0 mm 2 mps 752 mmHg 50%
    11:00 +27°C° 0 mm 2 mps 752 mmHg 45%
    12:00 +28°C° 0 mm 2 mps 751 mmHg 41%
    13:00 +29°C° 0 mm 2 mps 750 mmHg 40%
    14:00 +29°C° 0 mm 2 mps 750 mmHg 39%
    15:00 +29°C° 0 mm 2 mps 749 mmHg 38%
    16:00 +28°C° 0 mm 2 mps 749 mmHg 43%
    17:00 +26°C° 0 mm 2 mps 749 mmHg 48%
    18:00 +24°C° 0 mm 3 mps 749 mmHg 53%
    19:00 +23°C° 0 mm 2 mps 750 mmHg 55%
    20:00 +21°C° 0 mm 2 mps 751 mmHg 56%
    21:00 +21°C° 0 mm 1 mps 751 mmHg 58%
    22:00 +21°C° 0 mm 1 mps 751 mmHg 59%
    23:00 +19°C° 0 mm 0 mps 751 mmHg 59%
    Show more